Location: Unspecified
(0.0000°N, 0.0000°E)
Time: 13:39:40
(UTC+00:00)

deb Explorer IX - Pass Details

Date: 24 November 2019
Orbit: 545 x 1105 km, 38.8° (Epoch: 08 December)

Event Time Altitude Azimuth Distance (km) Brightness Sun altitude
Rises 18:27:18 0° 221° (SW) 3,580 ? -9.5°
Reaches altitude 10° 18:29:50 10° 217° (SW) 2,709 ? -10.1°
Maximum altitude 18:36:25 61° 138° (SE) 1,181 ? -11.6°
Enters shadow 18:42:10 16° 62° (ENE) 2,480 ? -13.0°
